Location: Wellington
(41.3000°S, 174.7830°E)
Time: 01:27:49
(UTC+13:00)

Cosmos 1707 Rocket - Pass Details

Date: 24 January 2019
Orbit: 604 x 633 km, 82.5° (Epoch: 22 February)

Event Time Altitude Azimuth Distance (km) Brightness Sun altitude
Exits shadow 22:55:33 46° 29° (NNE) 827 3.7 -19.3°
Maximum altitude 22:56:36 62° 85° (E) 692 3.5 -19.5°
Drops below altitude 10° 23:00:58 10° 165° (SSE) 1,991 6.6 -20.0°
Sets 23:03:13 0° 168° (SSE) 2,906 7.6 -20.2°
